Temp
37 37 37 35 34 37 36 36 36 37 37 39 40 40 41 42 42 41 41 41 38 37 35 33 33 31 30 28 26 25 25 25
36 37 37 37 37 34 36 33 34 37 38 37 38 39 40 41 42 42 41 41 39 38 36 34 33 32 31 29 27 26 26 25
37 35 35 36 36 35 36 36 35 36 38 42 39 39 40 41 41 42 41 40 40 39 37 35 34 33 31 30 28 27 26 26
35 38 37 37 36 36 34 34 36 37 38 41 42 41 41 41 41 42 41 40 40 39 38 37 35 34 32 31 30 28 27 26
32 36 37 36 36 36 36 36 35 35 37 41 40 41 41 41 41 40 40 41 40 40 39 38 36 35 34 32 31 30 28 27
33 34 37 35 36 36 36 35 35 37 37 38 39 39 40 40 40 40 39 39 40 40 38 38 37 35 34 33 33 31 30 28
33 35 37 36 35 36 36 37 35 37 38 37 38 38 39 39 39 40 40 40 39 40 37 36 36 35 35 35 34 33 32 30
30 33 34 34 36 36 36 37 37 38 39 39 38 38 38 37 37 37 37 39 39 39 38 38 37 36 35 35 35 34 33 32
27 30 32 33 35 36 37 37 37 37 38 39 37 37 37 37 37 37 37 38 38 38 38 37 38 37 35 35 35 35 33 32
26 28 27 33 36 36 37 37 38 38 39 39 38 38 37 37 37 37 37 37 37 38 38 38 38 38 37 35 34 34 34 33
25 27 30 32 34 34 34 36 38 38 38 37 37 37 36 36 37 36 37 36 37 38 38 38 38 38 36 35 34 33 33 32
24 26 27 31 34 35 36 32 32 35 35 36 36 33 32 31 32 32 33 33 33 34 35 38 38 39 38 35 34 32 32 32
23 24 28 26 31 34 31 25 27 30 32 33 32 30 30 31 30 31 32 33 33 33 33 34 33 34 34 36 35 34 32 32
23 23 23 26 28 26 25 25 26 26 27 28 28 29 29 29 29 29 31 32 33 33 33 34 33 33 33 33 34 34 35 32
23 24 25 26 26 26 26 25 25 25 26 27 28 28 28 28 28 29 31 32 32 32 33 33 33 31 31 31 32 33 33 32
21 23 23 24 26 26 25 25 24 25 25 26 26 26 27 27 26 27 29 29 29 30 31 29 29 29 30 30 31 31 31 31
20 22 23 23 24 24 24 24 24 25 25 25 24 25 25 26 25 25 26 25 26 28 29 28 26 26 26 26 27 29 30 29
19 21 20 21 22 24 24 23 24 24 24 24 24 24 24 25 24 23 24 24 25 26 27 25 24 23 25 25 26 28 29 29
15 15 17 19 21 22 22 23 24 24 24 23 23 23 24 24 23 22 22 23 24 24 22 22 23 24 24 25 25 26 27 28
Height
629 633 640 663 674 661 685 678 695 681 674 654 644 641 636 635 637 645 650 657 669 682 698 709 720 729 736 745 753 760 767 776
626 625 632 639 648 686 676 711 707 678 667 669 653 646 638 639 637 637 642 650 660 674 687 699 708 720 730 737 745 749 757 766
619 631 642 646 652 662 665 671 690 689 661 608 628 627 632 632 632 632 636 644 653 665 678 689 702 713 722 731 739 746 750 755
622 603 614 627 642 646 673 685 663 660 653 602 597 610 616 624 626 628 631 638 644 655 669 683 694 703 712 722 730 735 742 750
640 611 606 624 629 636 644 651 669 677 660 607 609 610 613 621 621 627 631 634 641 649 661 672 682 692 701 710 718 729 738 745
632 619 603 630 630 630 638 661 663 655 650 635 626 625 619 621 622 625 630 634 639 644 653 663 673 682 691 701 710 721 729 736
617 604 597 614 625 626 635 636 656 641 641 636 630 629 624 623 625 627 631 633 637 641 648 654 662 673 683 691 700 708 716 723
632 611 611 617 610 618 622 628 632 630 631 616 619 622 628 634 637 641 642 640 642 645 649 654 660 666 674 683 689 697 704 708
652 633 625 632 608 610 615 616 623 639 623 612 625 629 634 637 639 645 647 646 647 648 652 655 659 664 669 675 682 688 693 699
664 646 668 620 596 601 608 610 610 615 611 614 620 623 628 632 641 646 647 648 649 649 651 652 655 660 666 671 677 681 686 691
668 658 638 623 610 613 621 618 604 614 610 618 624 628 639 637 640 646 649 650 651 651 649 650 653 656 659 663 668 674 680 684
675 670 667 631 606 595 601 643 625 618 621 624 630 659 658 650 651 653 655 655 654 652 649 648 649 650 654 660 664 669 671 676
687 681 646 643 618 600 645 683 651 638 631 633 646 656 656 656 658 658 657 655 654 654 652 651 652 651 653 654 657 660 665 671
686 685 692 651 638 657 668 666 662 659 656 657 655 656 658 659 662 660 658 655 652 651 651 650 650 652 654 655 656 658 660 663
684 674 656 666 669 667 664 670 671 672 671 668 665 664 664 664 665 662 656 653 653 651 649 650 651 654 655 656 656 657 658 659
691 674 673 674 670 670 672 675 676 677 677 675 676 672 666 666 670 671 661 659 659 656 652 653 655 656 655 654 654 655 656 659
694 682 677 679 678 678 680 680 679 678 680 679 680 680 679 680 682 677 671 670 666 661 656 659 660 660 659 658 656 655 656 659
697 688 687 684 682 678 677 682 682 683 681 683 684 687 686 683 684 684 678 675 671 667 663 665 666 665 663 660 658 656 657 659
711 704 698 690 687 684 683 678 679 679 681 686 689 690 686 681 684 683 681 674 670 668 669 669 668 667 665 662 660 658 658 658
Wind_Speed
33 26 26 23 25 24 21 20 16 18 25 22 25 24 21 16 22 23 24 22 26 25 29 34 35 39 40 41 40 40 41 36
33 26 28 27 22 21 17 20 19 19 22 19 22 25 22 16 16 20 22 21 23 24 26 36 39 39 39 39 41 44 42 41
29 31 27 22 21 25 19 16 14 13 14 17 25 22 21 22 18 18 20 22 22 23 30 36 36 36 38 38 38 38 41 43
27 27 30 28 28 25 13 22 15 14 4 12 15 21 17 12 21 15 15 20 21 22 23 30 35 36 39 39 38 41 40 39
26 23 29 32 29 26 22 18 19 14 7 8 11 12 16 16 18 19 13 15 19 21 20 21 33 36 38 41 41 36 36 36
19 21 19 27 29 28 25 17 16 18 7 8 8 4 10 13 9 11 12 10 17 18 20 19 31 34 35 37 38 38 36 37
29 24 22 26 27 29 30 21 22 18 18 15 11 9 9 9 5 9 12 8 9 13 16 18 23 32 33 35 38 38 39 39
17 22 19 18 31 29 29 29 23 24 18 19 15 11 10 12 8 8 8 5 4 4 3 5 12 23 33 33 33 38 38 40
16 17 21 19 16 28 26 24 24 20 17 17 20 17 14 12 8 6 2 1 3 2 5 5 8 16 23 29 30 30 36 36
11 13 18 12 13 13 21 23 23 18 16 13 14 15 12 9 6 5 4 5 4 7 7 12 16 19 19 22 29 29 27 28
6 8 9 13 14 16 9 15 20 21 16 12 12 10 9 7 2 3 5 7 7 12 15 17 20 24 29 28 29 29 29 28
9 6 12 6 14 3 16 9 21 10 0 5 6 4 9 14 13 12 11 10 9 16 17 9 4 12 10 23 23 26 30 31
8 6 3 13 19 9 13 6 16 21 9 4 8 11 10 10 11 11 11 9 10 10 13 8 11 13 13 9 15 29 29 26
11 9 2 22 11 8 8 12 16 17 19 15 15 12 12 13 13 13 12 11 11 8 9 13 6 10 13 10 13 12 21 27
12 11 4 10 7 7 11 10 12 13 14 13 11 13 13 12 14 15 11 6 11 12 9 9 3 5 6 10 8 10 11 19
9 16 11 9 12 10 10 9 9 10 13 13 14 14 16 15 14 15 14 9 13 16 8 8 7 6 4 2 4 7 7 10
15 15 15 14 14 13 13 14 13 10 13 11 12 15 15 10 11 14 13 18 17 14 5 5 5 6 6 6 5 4 5 7
13 16 14 15 16 15 16 14 14 14 12 12 13 12 15 9 9 13 12 13 13 10 5 6 7 5 5 3 3 3 9 10
10 20 21 20 19 21 15 17 14 15 11 12 13 14 17 10 9 12 17 14 11 6 6 4 3 3 1 1 3 4 4 5
Wind_Direction
228 210 214 199 214 217 227 220 224 217 223 241 223 243 246 220 189 186 186 182 173 172 179 181 186 188 187 188 191 192 196 200
203 215 216 228 197 217 228 240 226 225 218 210 219 213 227 218 226 189 182 178 171 174 177 181 188 189 191 191 192 193 195 200
220 206 207 207 208 209 228 235 239 248 230 199 200 201 203 207 217 199 188 175 173 173 180 184 184 186 193 195 194 197 198 201
231 209 206 212 216 201 220 216 245 270 322 22 171 181 188 217 186 212 198 173 172 172 178 177 183 188 192 195 199 201 201 203
241 213 193 212 206 223 207 233 222 243 230 85 48 155 182 194 189 193 201 191 175 169 179 181 185 189 191 196 202 200 202 205
226 224 202 193 212 207 222 210 227 222 151 129 121 143 156 168 191 199 192 205 172 177 179 184 188 189 192 194 198 200 200 205
237 234 214 194 209 212 211 217 218 215 209 140 145 130 133 108 97 172 167 166 154 188 176 185 182 186 192 195 194 197 202 202
258 251 258 257 197 213 210 221 208 237 215 139 128 130 124 102 81 65 46 114 141 137 128 135 171 175 187 196 196 197 200 205
247 251 253 244 228 198 217 207 220 218 235 143 147 149 144 143 126 117 156 328 327 182 174 187 196 181 181 192 198 198 202 206
271 266 242 239 228 253 219 215 212 222 231 164 148 141 114 110 133 164 220 248 270 242 226 245 204 208 200 188 198 208 211 210
265 240 227 230 229 220 242 203 218 206 230 102 83 103 85 70 34 273 277 288 285 265 264 227 199 211 199 200 193 198 211 217
309 275 217 220 250 225 211 222 0 335 34 117 121 181 76 35 23 11 353 358 345 338 348 284 237 241 175 193 189 198 210 215
239 268 28 324 350 117 204 36 8 9 26 8 54 48 48 29 14 355 332 317 316 318 312 331 347 333 334 255 204 202 210 211
238 241 212 2 20 38 63 38 29 19 27 28 21 20 16 16 2 341 324 315 302 276 278 292 304 297 283 273 267 282 214 204
233 227 38 10 10 42 33 43 20 23 7 352 0 3 5 9 350 326 302 312 350 323 323 304 146 324 308 289 265 248 223 194
286 283 313 332 330 345 5 348 1 351 340 352 357 352 355 3 340 335 344 13 341 320 302 69 38 359 285 295 241 222 214 188
305 278 290 299 305 315 317 321 318 337 319 340 340 339 337 337 328 322 338 355 343 328 7 52 30 11 12 10 356 221 196 182
286 309 313 313 322 297 287 278 275 290 305 314 319 317 311 326 339 323 311 312 314 320 345 48 41 15 352 11 342 314 180 185
303 312 314 309 302 288 312 312 277 280 276 284 299 302 299 307 313 299 286 278 275 315 76 78 44 284 293 104 104 70 66 82